• In Hungary
  • List of Countries
  • For 7 days
  • Water Temperature
  • Satellite Maps
  • Weather Map
  • News
  • Weather Widgets
  • user-avatar
    Login

    Hourly Weather Mitrofanovka

    Today, 17 July, Tuesday

    Time Temperature Precipitation Wind Pressure Humidity
    00:00 +15°C° 0 mm 2 mps 746 mmHg 65%
    01:00 +15°C° 0 mm 2 mps 747 mmHg 67%
    02:00 +14°C° 0 mm 2 mps 747 mmHg 68%
    03:00 +13°C° 0 mm 2 mps 747 mmHg 69%
    04:00 +14°C° 0 mm 2 mps 747 mmHg 68%
    05:00 +15°C° 0 mm 2 mps 747 mmHg 66%
    06:00 +16°C° 0 mm 2 mps 747 mmHg 65%
    07:00 +18°C° 0 mm 2 mps 747 mmHg 58%
    08:00 +20°C° 0 mm 2 mps 747 mmHg 52%
    09:00 +24°C° 0 mm 2 mps 747 mmHg 45%
    10:00 +25°C° 0 mm 3 mps 747 mmHg 40%
    11:00 +27°C° 0 mm 3 mps 746 mmHg 34%
    12:00 +28°C° 0 mm 3 mps 746 mmHg 29%
    13:00 +28°C° 0 mm 3 mps 746 mmHg 29%
    14:00 +29°C° 0 mm 3 mps 746 mmHg 29%
    15:00 +29°C° 0 mm 3 mps 746 mmHg 29%
    16:00 +29°C° 0 mm 3 mps 746 mmHg 33%
    17:00 +28°C° 0 mm 2 mps 746 mmHg 36%
    18:00 +28°C° 0 mm 2 mps 746 mmHg 39%
    19:00 +25°C° 0 mm 2 mps 746 mmHg 45%
    20:00 +23°C° 0 mm 2 mps 746 mmHg 51%
    21:00 +20°C° 0 mm 2 mps 746 mmHg 57%
    22:00 +18°C° 0 mm 2 mps 746 mmHg 59%
    23:00 +18°C° 0 mm 1 mps 746 mmHg 61%

    Tomorrow, 18 July, Wednesday

    Time Temperature Precipitation Wind Pressure Humidity
    00:00 +16°C° 0 mm 1 mps 746 mmHg 63%
    01:00 +15°C° 0 mm 1 mps 746 mmHg 64%
    02:00 +15°C° 0 mm 1 mps 746 mmHg 65%
    03:00 +14°C° 0 mm 1 mps 746 mmHg 67%
    04:00 +15°C° 0 mm 1 mps 746 mmHg 66%
    05:00 +16°C° 0 mm 1 mps 746 mmHg 66%
    06:00 +16°C° 0 mm 1 mps 746 mmHg 66%
    07:00 +20°C° 0 mm 1 mps 746 mmHg 58%
    08:00 +22°C° 0 mm 1 mps 747 mmHg 51%
    09:00 +25°C° 0 mm 2 mps 747 mmHg 43%
    10:00 +26°C° 0 mm 2 mps 746 mmHg 38%
    11:00 +28°C° 0 mm 2 mps 746 mmHg 34%
    12:00 +29°C° 0 mm 2 mps 746 mmHg 29%
    13:00 +29°C° 0 mm 2 mps 746 mmHg 29%
    14:00 +29°C° 0 mm 2 mps 746 mmHg 29%
    15:00 +30°C° 0 mm 2 mps 746 mmHg 29%
    16:00 +29°C° 0 mm 2 mps 746 mmHg 33%
    17:00 +28°C° 0 mm 1 mps 746 mmHg 38%
    18:00 +28°C° 0 mm 1 mps 746 mmHg 42%
    19:00 +25°C° 0 mm 1 mps 746 mmHg 47%
    20:00 +23°C° 0 mm 1 mps 746 mmHg 52%
    21:00 +21°C° 0 mm 1 mps 746 mmHg 57%
    22:00 +19°C° 0 mm 1 mps 746 mmHg 59%
    23:00 +16°C° 0 mm 0 mps 746 mmHg 61%

    Day after tomorrow, 19 July, Thursday

    Time Temperature Precipitation Wind Pressure Humidity
    00:00 +15°C° 0 mm 0 mps 746 mmHg 63%
    01:00 +15°C° 0 mm 0 mps 746 mmHg 64%
    02:00 +16°C° 0 mm 1 mps 746 mmHg 64%
    03:00 +15°C° 0 mm 1 mps 746 mmHg 64%
    04:00 +16°C° 0 mm 1 mps 746 mmHg 64%
    05:00 +18°C° 0 mm 1 mps 746 mmHg 64%
    06:00 +19°C° 0 mm 1 mps 746 mmHg 64%
    07:00 +21°C° 0 mm 1 mps 746 mmHg 57%
    08:00 +24°C° 0 mm 1 mps 746 mmHg 50%
    09:00 +26°C° 0 mm 1 mps 746 mmHg 43%
    10:00 +28°C° 0 mm 1 mps 746 mmHg 39%
    11:00 +29°C° 0 mm 2 mps 745 mmHg 35%
    12:00 +30°C° 0 mm 2 mps 745 mmHg 30%
    13:00 +30°C° 0 mm 2 mps 745 mmHg 32%
    14:00 +30°C° 0 mm 2 mps 745 mmHg 33%
    15:00 +30°C° 0 mm 3 mps 745 mmHg 34%
    16:00 +29°C° 0 mm 2 mps 745 mmHg 39%
    17:00 +28°C° 0 mm 2 mps 745 mmHg 44%
    18:00 +27°C° 0 mm 2 mps 745 mmHg 49%
    19:00 +25°C° 0.1 mm 2 mps 745 mmHg 58%
    20:00 +23°C° 0.1 mm 2 mps 745 mmHg 67%
    21:00 +20°C° 0.1 mm 2 mps 745 mmHg 75%
    22:00 +19°C° 0.4 mm 2 mps 745 mmHg 82%
    23:00 +18°C° 0.4 mm 2 mps 745 mmHg 88%

    20 July, Friday

    Time Temperature Precipitation Wind Pressure Humidity
    00:00 +18°C° 0.4 mm 1 mps 745 mmHg 94%
    01:00 +16°C° 0 mm 2 mps 745 mmHg 95%
    02:00 +16°C° 0 mm 2 mps 745 mmHg 96%
    03:00 +15°C° 0 mm 2 mps 745 mmHg 96%
    04:00 +15°C° 0 mm 2 mps 745 mmHg 93%
    05:00 +16°C° 0 mm 2 mps 746 mmHg 90%
    06:00 +16°C° 0 mm 2 mps 746 mmHg 87%
    07:00 +18°C° 0 mm 3 mps 746 mmHg 77%
    08:00 +19°C° 0 mm 3 mps 746 mmHg 68%
    09:00 +21°C° 0 mm 3 mps 747 mmHg 58%
    10:00 +22°C° 0 mm 4 mps 746 mmHg 52%
    11:00 +22°C° 0 mm 4 mps 746 mmHg 47%
    12:00 +23°C° 0 mm 4 mps 746 mmHg 41%
    13:00 +23°C° 0 mm 4 mps 746 mmHg 38%
    14:00 +23°C° 0 mm 4 mps 746 mmHg 36%
    15:00 +25°C° 0 mm 4 mps 746 mmHg 33%
    16:00 +23°C° 0 mm 4 mps 746 mmHg 33%
    17:00 +22°C° 0 mm 4 mps 746 mmHg 33%
    18:00 +21°C° 0 mm 4 mps 746 mmHg 33%
    19:00 +19°C° 0 mm 3 mps 746 mmHg 38%
    20:00 +16°C° 0 mm 3 mps 747 mmHg 44%
    21:00 +14°C° 0 mm 2 mps 747 mmHg 50%
    22:00 +13°C° 0 mm 2 mps 747 mmHg 51%
    23:00 +12°C° 0 mm 2 mps 747 mmHg 52%

    21 July, Saturday

    Time Temperature Precipitation Wind Pressure Humidity
    00:00 +10°C° 0 mm 2 mps 746 mmHg 54%
    01:00 +9°C° 0 mm 2 mps 746 mmHg 54%
    02:00 +8°C° 0 mm 2 mps 746 mmHg 55%
    03:00 +8°C° 0 mm 2 mps 746 mmHg 55%
    04:00 +8°C° 0 mm 2 mps 746 mmHg 55%
    05:00 +9°C° 0 mm 2 mps 746 mmHg 55%
    06:00 +10°C° 0 mm 2 mps 746 mmHg 55%
    07:00 +13°C° 0 mm 2 mps 746 mmHg 48%
    08:00 +15°C° 0 mm 2 mps 746 mmHg 41%
    09:00 +17°C° 0 mm 2 mps 746 mmHg 35%
    10:00 +18°C° 0 mm 3 mps 746 mmHg 33%
    11:00 +19°C° 0 mm 3 mps 746 mmHg 31%
    12:00 +20°C° 0 mm 3 mps 745 mmHg 29%
    13:00 +20°C° 0 mm 3 mps 745 mmHg 29%
    14:00 +20°C° 0 mm 3 mps 745 mmHg 30%
    15:00 +20°C° 0 mm 4 mps 745 mmHg 30%
    16:00 +20°C° 0 mm 4 mps 745 mmHg 33%
    17:00 +19°C° 0 mm 3 mps 745 mmHg 36%
    18:00 +18°C° 0 mm 3 mps 745 mmHg 39%
    19:00 +16°C° 0 mm 3 mps 745 mmHg 42%
    20:00 +13°C° 0 mm 3 mps 745 mmHg 45%
    21:00 +12°C° 0 mm 3 mps 745 mmHg 48%
    22:00 +10°C° 0 mm 3 mps 745 mmHg 51%
    23:00 +9°C° 0 mm 2 mps 745 mmHg 54%

    22 July, Sunday

    Time Temperature Precipitation Wind Pressure Humidity
    00:00 +8°C° 0 mm 2 mps 745 mmHg 57%
    01:00 +7°C° 0 mm 2 mps 745 mmHg 58%
    02:00 +6°C° 0 mm 2 mps 745 mmHg 60%
    03:00 +6°C° 0 mm 2 mps 745 mmHg 62%
    04:00 +7°C° 0 mm 2 mps 745 mmHg 60%
    05:00 +7°C° 0 mm 2 mps 745 mmHg 57%
    06:00 +8°C° 0 mm 2 mps 745 mmHg 54%
    07:00 +10°C° 0 mm 3 mps 745 mmHg 49%
    08:00 +11°C° 0 mm 3 mps 745 mmHg 44%
    09:00 +13°C° 0 mm 3 mps 745 mmHg 39%
    10:00 +13°C° 0 mm 3 mps 745 mmHg 40%
    11:00 +13°C° 0 mm 3 mps 745 mmHg 40%
    12:00 +14°C° 0 mm 3 mps 745 mmHg 41%
    13:00 +13°C° 0.3 mm 4 mps 745 mmHg 47%
    14:00 +13°C° 0.3 mm 4 mps 745 mmHg 52%
    15:00 +13°C° 0.3 mm 4 mps 745 mmHg 58%
    16:00 +13°C° 0.3 mm 4 mps 745 mmHg 60%
    17:00 +12°C° 0.3 mm 3 mps 745 mmHg 63%
    18:00 +12°C° 0.3 mm 3 mps 745 mmHg 66%
    19:00 +10°C° 0.1 mm 3 mps 744 mmHg 73%
    20:00 +8°C° 0.1 mm 2 mps 744 mmHg 80%
    21:00 +7°C° 0.1 mm 2 mps 744 mmHg 87%
    22:00 +6°C° 0 mm 2 mps 744 mmHg 90%
    23:00 +5°C° 0 mm 2 mps 744 mmHg 93%
    Show more